DEXSW EDSB-EDSH

Flight info

Callsign DEXSW
Flight time 0h 38m
Altitude 5000
Route EDSB ROMEO KRH LBU EDSH
Aircraft C182/L-V/N

Departure

Time 2026-05-01 09:48
Airport Karlsruhe Baden-Baden Airport (EDSB)

Arrival

Time 2026-05-01 10:27
Airport Backnang-Heiningen Airfield (EDSH)
Time Latitude Longitude Altitude Speed Heading
2026-05-01 09:21 48.76841 8.07618 412 ft 0 kts 113°
2026-05-01 09:28 48.76843 8.07607 412 ft 1 kts 65°
2026-05-01 09:28 48.76842 8.07605 412 ft 0 kts 54°
2026-05-01 09:34 48.76843 8.07605 412 ft 0 kts 54°
2026-05-01 09:34 48.76843 8.07606 412 ft 0 kts 54°
2026-05-01 09:36 48.76843 8.07607 412 ft 0 kts 54°
2026-05-01 09:39 48.76844 8.07608 412 ft 0 kts 54°
2026-05-01 09:40 48.76856 8.07619 412 ft 5 kts
2026-05-01 09:40 48.76887 8.07578 412 ft 8 kts 288°
2026-05-01 09:41 48.76894 8.07508 412 ft 7 kts 278°
2026-05-01 09:41 48.76871 8.07343 412 ft 8 kts 235°
2026-05-01 09:41 48.76825 8.07297 412 ft 10 kts 209°
2026-05-01 09:42 48.76808 8.07282 412 ft 0 kts 211°
2026-05-01 09:44 48.76807 8.07282 412 ft 0 kts 211°
2026-05-01 09:44 48.76807 8.07281 412 ft 0 kts 211°
2026-05-01 09:45 48.76805 8.07279 412 ft 3 kts 211°
2026-05-01 09:46 48.76764 8.07240 412 ft 10 kts 213°
2026-05-01 09:46 48.76724 8.07180 412 ft 7 kts 255°
2026-05-01 09:46 48.76740 8.07116 412 ft 8 kts 303°
2026-05-01 09:46 48.76775 8.07032 412 ft 8 kts 301°
2026-05-01 09:47 48.76819 8.07001 412 ft 8 kts 30°
2026-05-01 09:47 48.76866 8.07043 412 ft 0 kts 32°
2026-05-01 09:48 48.77069 8.07228 412 ft 64 kts 31°
2026-05-01 09:48 48.77507 8.07667 602 ft 79 kts 31°
2026-05-01 09:48 48.77984 8.08164 861 ft 83 kts 33°
2026-05-01 09:48 48.78420 8.08684 1101 ft 86 kts 34°
2026-05-01 09:49 48.78941 8.09292 1246 ft 102 kts 40°
2026-05-01 09:49 48.79377 8.10066 1427 ft 98 kts 51°
2026-05-01 09:49 48.79786 8.10876 1537 ft 95 kts 49°
2026-05-01 09:49 48.80237 8.11677 1690 ft 101 kts 45°
2026-05-01 09:50 48.80644 8.12525 1901 ft 98 kts 57°
2026-05-01 09:50 48.80989 8.13433 2067 ft 102 kts 58°
2026-05-01 09:50 48.81330 8.14322 2217 ft 96 kts 58°
2026-05-01 09:50 48.81674 8.15206 2329 ft 99 kts 58°
2026-05-01 09:51 48.82020 8.16118 2462 ft 97 kts 61°
2026-05-01 09:51 48.82359 8.16995 2480 ft 97 kts 60°
2026-05-01 09:51 48.82708 8.17884 2473 ft 100 kts 63°
2026-05-01 09:51 48.82975 8.18836 2497 ft 95 kts 73°
2026-05-01 09:52 48.83184 8.19846 2491 ft 100 kts 73°
2026-05-01 09:52 48.83387 8.20829 2482 ft 100 kts 73°
2026-05-01 09:52 48.83597 8.21841 2428 ft 100 kts 74°
2026-05-01 09:52 48.83975 8.22775 2274 ft 109 kts 50°
2026-05-01 09:53 48.84469 8.23624 2336 ft 104 kts 50°
2026-05-01 09:53 48.84912 8.24438 2431 ft 98 kts 58°
2026-05-01 09:53 48.85197 8.25361 2476 ft 99 kts 73°
2026-05-01 09:53 48.85426 8.26364 2507 ft 98 kts 73°
2026-05-01 09:54 48.85651 8.27339 2506 ft 99 kts 67°
2026-05-01 09:54 48.86009 8.28285 2523 ft 105 kts 61°
2026-05-01 09:54 48.86383 8.29209 2627 ft 100 kts 60°
2026-05-01 09:54 48.86755 8.30068 2775 ft 96 kts 58°
2026-05-01 09:55 48.87071 8.31030 2873 ft 107 kts 72°
2026-05-01 09:55 48.87273 8.32125 3075 ft 102 kts 75°
2026-05-01 09:55 48.87538 8.33028 3349 ft 92 kts 67°
2026-05-01 09:55 48.87836 8.33929 3428 ft 100 kts 66°
2026-05-01 09:56 48.88220 8.34854 3575 ft 105 kts 58°
2026-05-01 09:56 48.88638 8.35733 3778 ft 100 kts 58°
2026-05-01 09:56 48.89040 8.36569 3922 ft 100 kts 57°
2026-05-01 09:56 48.89493 8.37408 4062 ft 104 kts 51°
2026-05-01 09:57 48.89974 8.38202 4243 ft 99 kts 56°
2026-05-01 09:57 48.90403 8.39043 4344 ft 104 kts 58°
2026-05-01 09:57 48.90767 8.39987 4507 ft 101 kts 72°
2026-05-01 09:57 48.90922 8.40991 4658 ft 97 kts 84°
2026-05-01 09:58 48.91050 8.42015 4793 ft 99 kts 82°
2026-05-01 09:58 48.91194 8.43023 4915 ft 97 kts 78°
2026-05-01 09:58 48.91395 8.44016 4988 ft 99 kts 78°
2026-05-01 09:58 48.91577 8.45020 5093 ft 97 kts 83°
2026-05-01 09:59 48.91728 8.46028 5161 ft 102 kts 74°
2026-05-01 09:59 48.92179 8.46939 5300 ft 112 kts 44°
2026-05-01 09:59 48.92794 8.47559 5493 ft 100 kts 40°
2026-05-01 09:59 48.93401 8.48163 5511 ft 108 kts 40°
2026-05-01 10:00 48.94039 8.48798 5535 ft 113 kts 40°
2026-05-01 10:00 48.94725 8.49496 5517 ft 123 kts 41°
2026-05-01 10:00 48.95439 8.50244 5535 ft 124 kts 41°
2026-05-01 10:00 48.96123 8.51016 5510 ft 122 kts 50°
2026-05-01 10:01 48.96612 8.52061 5481 ft 122 kts 71°
2026-05-01 10:01 48.96797 8.53291 5523 ft 118 kts 88°
2026-05-01 10:01 48.97051 8.54477 5588 ft 119 kts 69°
2026-05-01 10:01 48.97444 8.55576 5660 ft 117 kts 61°
2026-05-01 10:02 48.98023 8.56529 5576 ft 131 kts 47°
2026-05-01 10:02 48.98745 8.57402 5589 ft 132 kts 44°
2026-05-01 10:02 48.99464 8.58291 5579 ft 134 kts 46°
2026-05-01 10:02 49.00186 8.59184 5596 ft 134 kts 44°
2026-05-01 10:03 49.00890 8.60099 5615 ft 132 kts 56°
2026-05-01 10:03 49.01308 8.61315 5580 ft 128 kts 78°
2026-05-01 10:03 49.01427 8.62612 5618 ft 118 kts 94°
2026-05-01 10:03 49.01254 8.63831 5547 ft 118 kts 113°
2026-05-01 10:04 49.00914 8.65023 5441 ft 123 kts 113°
2026-05-01 10:04 49.00640 8.66232 5512 ft 120 kts 111°
2026-05-01 10:04 49.00322 8.67440 5660 ft 123 kts 114°
2026-05-01 10:04 48.99952 8.68565 5889 ft 117 kts 120°
2026-05-01 10:05 48.99504 8.69644 6010 ft 123 kts 124°
2026-05-01 10:05 48.99001 8.70731 6068 ft 129 kts 126°
2026-05-01 10:05 48.98471 8.71851 6195 ft 129 kts 124°
2026-05-01 10:05 48.97931 8.72920 6280 ft 133 kts 137°
2026-05-01 10:06 48.97257 8.73948 6221 ft 140 kts 126°
2026-05-01 10:06 48.96755 8.75217 6180 ft 140 kts 116°
2026-05-01 10:06 48.96501 8.76144 6147 ft 141 kts 112°
2026-05-01 10:06 48.96175 8.77550 6092 ft 141 kts 108°
2026-05-01 10:07 48.95934 8.78992 6039 ft 140 kts 105°
2026-05-01 10:07 48.95735 8.80460 5983 ft 140 kts 103°
2026-05-01 10:07 48.95584 8.81912 5934 ft 140 kts 100°
2026-05-01 10:07 48.95447 8.83381 5885 ft 140 kts 101°
2026-05-01 10:08 48.95178 8.86318 5787 ft 140 kts 98°
2026-05-01 10:08 48.95061 8.87798 5735 ft 141 kts 99°
2026-05-01 10:08 48.94930 8.89282 5688 ft 142 kts 99°
2026-05-01 10:09 48.94813 8.90771 5640 ft 142 kts 99°
2026-05-01 10:09 48.94678 8.92250 5587 ft 142 kts 100°
2026-05-01 10:09 48.94551 8.93733 5560 ft 141 kts 99°
2026-05-01 10:09 48.94439 8.95206 5551 ft 139 kts 98°
2026-05-01 10:10 48.94331 8.96661 5544 ft 138 kts 99°
2026-05-01 10:10 48.94211 8.98092 5543 ft 135 kts 100°
2026-05-01 10:10 48.93991 9.00901 5543 ft 133 kts 99°
2026-05-01 10:11 48.93870 9.02287 5545 ft 132 kts 100°
2026-05-01 10:11 48.93753 9.03666 5549 ft 132 kts 99°
2026-05-01 10:11 48.93644 9.05046 5552 ft 131 kts 99°
2026-05-01 10:11 48.93529 9.06418 5550 ft 131 kts 99°
2026-05-01 10:12 48.93422 9.07797 5525 ft 133 kts 99°
2026-05-01 10:12 48.93300 9.09199 5459 ft 137 kts 98°
2026-05-01 10:12 48.93075 9.12137 5344 ft 141 kts 98°
2026-05-01 10:13 48.92935 9.13624 5270 ft 143 kts 98°
2026-05-01 10:13 48.92833 9.15129 5196 ft 143 kts 100°
2026-05-01 10:13 48.92698 9.16632 5120 ft 144 kts 99°
2026-05-01 10:14 48.92458 9.19658 4970 ft 144 kts 98°
2026-05-01 10:14 48.92333 9.21168 4887 ft 145 kts 99°
2026-05-01 10:14 48.92208 9.22703 4816 ft 147 kts 96°
2026-05-01 10:14 48.92082 9.24245 4742 ft 148 kts 98°
2026-05-01 10:15 48.91953 9.25799 4664 ft 148 kts 99°
2026-05-01 10:15 48.91843 9.27338 4587 ft 145 kts 96°
2026-05-01 10:15 48.91699 9.28835 4549 ft 142 kts 97°
2026-05-01 10:15 48.91604 9.30311 4537 ft 139 kts 101°
2026-05-01 10:16 48.91486 9.31762 4527 ft 138 kts 95°
2026-05-01 10:16 48.91318 9.33192 4525 ft 139 kts 96°
2026-05-01 10:16 48.91613 9.36147 4536 ft 143 kts 83°
2026-05-01 10:17 48.91739 9.37650 4526 ft 144 kts 85°
2026-05-01 10:17 48.91908 9.40496 4643 ft 134 kts 89°
2026-05-01 10:17 48.91931 9.41936 4503 ft 134 kts 91°
2026-05-01 10:18 48.92563 9.44511 3980 ft 148 kts 38°
2026-05-01 10:18 48.93563 9.44957 3716 ft 154 kts
2026-05-01 10:18 48.94594 9.44599 3536 ft 154 kts 336°
2026-05-01 10:19 48.95384 9.43476 3198 ft 163 kts 302°
2026-05-01 10:19 48.95646 9.41847 3042 ft 158 kts 265°
2026-05-01 10:19 48.95298 9.40308 2922 ft 153 kts 234°
2026-05-01 10:20 48.93528 9.38999 2539 ft 146 kts 170°
2026-05-01 10:20 48.92561 9.39085 2493 ft 128 kts 176°
2026-05-01 10:20 48.91674 9.38917 2272 ft 133 kts 183°
2026-05-01 10:20 48.90815 9.39271 2158 ft 126 kts 139°
2026-05-01 10:21 48.90481 9.40348 2064 ft 113 kts 90°
2026-05-01 10:21 48.91435 9.42238 2039 ft 113 kts 40°
2026-05-01 10:21 48.92092 9.43005 1868 ft 127 kts 43°
2026-05-01 10:22 48.93679 9.43509 1864 ft 135 kts 327°
2026-05-01 10:22 48.93554 9.41268 1935 ft 116 kts 195°
2026-05-01 10:23 48.92840 9.41502 1920 ft 107 kts 136°
2026-05-01 10:23 48.92408 9.43615 1923 ft 106 kts 104°
2026-05-01 10:23 48.92238 9.44658 1922 ft 103 kts 104°
2026-05-01 10:24 48.91953 9.46761 1934 ft 95 kts 97°
2026-05-01 10:24 48.93002 9.47991 1836 ft 113 kts
2026-05-01 10:25 48.93690 9.46087 1730 ft 114 kts 270°
2026-05-01 10:25 48.93624 9.43985 1652 ft 92 kts 237°
2026-05-01 10:26 48.93096 9.43505 1613 ft 86 kts 182°
2026-05-01 10:26 48.92585 9.43391 1576 ft 66 kts 179°
2026-05-01 10:26 48.92161 9.44168 1234 ft 56 kts 92°
2026-05-01 10:27 48.92034 9.45287 987 ft 47 kts 108°